Regional Weather Roundup
Issued by NWS

Home | Current Version | Previous Version | Graphics & Text | Print | Product List | Glossary On
Versions: 1 2 3 4 5 6 7 8 9 10 11 12 13 14 15 16 17 18 19 20 21 22 23 24 25 26 27 28 29 30 31 32 33 34 35 36 37 38 39 40 41 42 43 44 45 46 47 48 49 50
000
ASUS43 KIND 301109
RWRIN

WEATHER ROUNDUP FOR INDIANA
NATIONAL WEATHER SERVICE INDIANAPOLIS IN
700 AM EDT SAT JUL 30 2016

NOTE: "FAIR" INDICATES FEW OR NO CLOUDS BELOW 12,000 FEET WITH NO
SIGNIFICANT WEATHER AND/OR OBSTRUCTIONS TO VISIBILITY.

* - STATION DOES NOT REPORT WEATHER SUCH AS PRECIPITATION OR FOG.

+ - STATION NOT QUALITY CONTROLLED BY THE NATIONAL WEATHER SERVICE.
    USE DATA WITH CAUTION...ESPECIALLY DEWPOINT AND RELATIVE
    HUMIDITY OBSERVATIONS.

INZ001>003-010>013-019-020-301200-
NORTHWEST INDIANA

CITY           SKY/WX    TMP DP  RH WIND       PRES   REMARKS
GARY /AIRPORT/ MOCLDY    66  66 100 CALM      29.94R FOG
KNOX *+        CLOUDY    68  64  88 E5        29.94R
LA PORTE +     CLOUDY   N/A N/A N/A CALM      29.95R FOG
MICHIGAN CITY+ CLOUDY    68  68 100 CALM      29.95R FOG
MONTICELLO +   CLOUDY    67  64  87 CALM      29.93R FOG
RENSSELAER +   FOG       63  63 100 E3        29.93R VSB 1/4
VALPARAISO     CLOUDY    68  67  96 E3        29.95R

$$

LMZ046-743>745-301200-
SOUTHERN LAKE MICHIGAN

STATION/POSITION TIME  TEMP    WIND        PRES    WAVE
                       AIR SEA DIR/SP/G            HT
                 (UTC) (F)     (DEG/KT/KT) (MB)    (FT)
BURNS HARBOR     1006   69     160/  2/ 10 1013.9R
MICHIGAN CITY    1000   68      80/  4/  5   N/A
5NW MICH CITY    1000   69 76  120/  8/ 10   N/A     2

$$

INZ004-005-014>016-021>024-301200-
NORTH CENTRAL INDIANA

CITY           SKY/WX    TMP DP  RH WIND       PRES   REMARKS
GOSHEN         CLOUDY    68  64  87 NE8       29.95R FOG
LOGANSPORT +   CLOUDY    68  68 100 CALM      29.94R FOG
PERU/GRISSOM   FOG       68  68 100 E1        29.92R VSB 1/4
ROCHESTER +    CLOUDY    72  72 100 E5        29.94R FOG
SOUTH BEND     CLOUDY    68  66  93 E8        29.95R
WARSAW +       CLOUDY    68  66  94 E8        29.94R

$$

INZ006>009-017-018-025>027-301200-
NORTHEAST INDIANA

CITY           SKY/WX    TMP DP  RH WIND       PRES   REMARKS
ANGOLA *+      CLOUDY    64  55  72 CALM      29.95R
AUBURN +       CLOUDY    64  63  94 NE5       29.95S
FORT WAYNE     CLOUDY    70  68  93 E7        29.93S FOG
HUNTINGTON +   CLOUDY    69  67  95 CALM      29.93R FOG

$$

INZ028-029-035-036-043>045-051>053-301200-
WEST CENTRAL INDIANA

CITY           SKY/WX    TMP DP  RH WIND       PRES   REMARKS
CRAWFORDSVL +  FOG       64  64 100 CALM      29.94R VSB<1/4
GREENCASTLE +  CLEAR     64  64 100 CALM      29.95R FOG
LAFAYETTE      FOG       67  67 100 SE3       29.93R VSB 1/4
TERRE HAUTE    MOCLDY    69  67  93 CALM      29.94R

$$

INZ030>032-037>040-046>048-054>057-064-065-301200-
CENTRAL INDIANA

CITY           SKY/WX    TMP DP  RH WIND       PRES   REMARKS
COLUMBUS       PTCLDY    66  66 100 CALM      29.94  FOG
INDIANAPOLIS   PTCLDY    68  67  96 W5        29.94R
-EAGLE CREEK   CLEAR     69  67  93 CALM      29.93R FOG
KOKOMO *+      CLOUDY    66  63  88 SE3       29.93R VSB 1/2
MARION +       FOG       67  67 100 SE3       29.94S VSB<1/4
MT COMFORT *+  CLOUDY    63  63 100 CALM      29.94R VSB 1/2
SHELBYVILLE    CLOUDY    68  65  90 SW3       29.93R
ZIONSVILLE +   FOG       64  64  99 CALM      29.95R VSB<1/4

$$

INZ033-034-041-042-049-050-058-059-301200-
EAST CENTRAL INDIANA

CITY           SKY/WX    TMP DP  RH WIND       PRES   REMARKS
MUNCIE         FOG       68  66  93 CALM      29.94R VSB<1/4

$$

INZ060-061-067>069-081>083-085>088-301200-
SOUTHWEST INDIANA

CITY           SKY/WX    TMP DP  RH WIND       PRES   REMARKS
EVANSVILLE     CLOUDY    73  71  93 CALM      29.95R
HUNTINGBURG *+ CLOUDY    72  66  83 CALM      29.95R VSB 1/4
WASHINGTON +   PTCLDY    71  71 100 MISG      29.95R

$$

INZ062-063-066-070>080-084-089>092-301200-
SOUTH CENTRAL AND SOUTHEAST INDIANA

CITY           SKY/WX    TMP DP  RH WIND       PRES   REMARKS
BLOOMINGTON    PTCLDY    69  67  93 W3        29.95R FOG
MADISON *+     CLOUDY    72  70  94 CALM      29.97R VSB 1/4
NORTH VERNON + CLOUDY   N/A N/A N/A CALM      29.95R FOG
SEYMOUR +      CLOUDY    72  72 100 CALM      29.94R FOG

$$




USA.gov is the U.S. government's official web portal to all federal, state and local government web resources and services.